Retour au catalogue

MARISAT 3

ActifCommunicationsMEO
NORAD 8882·PAYLOAD·🇺🇸 United States

Lancé Jun 10, 1976 depuis Cape Canaveral Space Force Station

Loading…

Prochains Passages (prochaines 24 heures)

TLE

FraisSource: Space-Track

Époque: Sep 14, 2026, 11:49 UTC

1 08882U 76053A   26257.49262855 -.00000190  00000-0  00000-0 0  9991
2 08882   7.5264 300.4832 0133115 334.8114 199.6071  0.95899849122010

Suivez MARISAT 3 en temps réel avec AllMySat

Download on the App Store